Home   Weather   Victorville   Past weeks

Flag for USA Past Weather in Victorville, California, USA — Yesterday and Last 2 Weeks

Now
64 °F

Sunny.


Feels Like: 64 °F
Forecast: 40 / 61 °F
Wind: No wind

Location: George Air Force Base / Victorvi

Current Time: Dec 4, 2016 at 4:38:14 pm

Latest Report: Dec 4, 2016 at 3:55 pm


Visibility: 10 mi

Pressure: 30.01 "Hg (27.22 "Hg at 830m altitude)

Humidity: 12%

Dew Point: 10 °F

Location of VictorvilleLocation

Past Weather in Victorville — Graph

°F

Victorville Temperature Yesterday

Maximum temperature yesterday: 55 °F (at 1:15 pm)
Minimum temperature yesterday: 27 °F (at 6:15 am)
Average temperature yesterday: 43 °F

High & Low Weather Summary for the Past Weeks

 TemperatureHumidityPressure
High72 °F (Nov 20, 11:35 am)94% (Nov 21, 12:55 am)30.36 "Hg (Nov 21, 12:55 am)
Low27 °F (Nov 25, 4:35 am)8% (Nov 20, 11:55 am)29.77 "Hg (Nov 28, 1:55 pm)
Average45 °F46%30.07 "Hg
* Reported Nov 19 3:15 pm — Dec 4 3:15 pm, Victorville, Weather by CustomWeather, © 2016

Note: Actual official high and low records may vary slightly from our data, if they occured in-between our weather recording intervals... More about our weather records

Advertising

Victorville Weather History for the Previous 24 Hours

Scroll right to see more
 ConditionsComfort  
Time TempWeatherWind HumidityBarometerVisibility
3:15 pm
Sun, Dec 4
66 °FSunny.No wind10%30.02 "Hg10 mi
2:55 pm64 °FSunny.No wind11%30.02 "Hg10 mi
2:35 pm64 °FSunny.No wind11%30.03 "Hg10 mi
2:15 pm64 °FSunny.No wind11%30.03 "Hg10 mi
1:55 pm63 °FSunny.No wind12%30.04 "Hg10 mi
1:35 pm63 °FSunny.No wind12%30.05 "Hg10 mi
1:15 pm63 °FSunny.No wind12%30.06 "Hg10 mi
12:55 pm61 °FSunny.No wind12%30.07 "Hg10 mi
12:35 pm61 °FSunny.No wind12%30.08 "Hg10 mi
12:15 pm59 °FSunny.No wind13%30.09 "Hg10 mi
11:55 am57 °FSunny.No wind14%30.10 "Hg10 mi
11:35 am57 °FSunny.No wind14%30.12 "Hg10 mi
11:15 am55 °FSunny.No wind15%30.13 "Hg10 mi
10:55 am54 °FSunny.No wind16%30.14 "Hg10 mi
10:15 am52 °FSunny.No wind20%30.16 "Hg10 mi
9:55 am52 °FCool.No wind20%30.17 "Hg10 mi
9:35 am48 °FCool.No wind23%30.18 "Hg10 mi
9:15 am48 °FCool.9 mph23%30.16 "Hg10 mi
8:55 am46 °FCool.9 mph23%30.16 "Hg10 mi
8:35 am45 °FQuite cool.8 mph25%30.16 "Hg10 mi
8:15 am41 °FQuite cool.8 mph28%30.17 "Hg10 mi
7:55 am37 °FChilly.No wind33%30.17 "Hg10 mi
7:15 am32 °FChilly.No wind37%30.18 "Hg10 mi
6:55 am30 °FChilly.No wind40%30.18 "Hg10 mi
6:35 am30 °FChilly.6 mph37%30.18 "Hg10 mi
6:15 am30 °FChilly.7 mph37%30.18 "Hg10 mi
5:55 am32 °FChilly.6 mph34%30.17 "Hg10 mi
5:15 am34 °FChilly.8 mph32%30.17 "Hg10 mi
4:55 am32 °FChilly.No wind32%30.17 "Hg10 mi
4:15 am34 °FChilly.No wind29%30.17 "Hg10 mi
3:55 am34 °FChilly.No wind27%30.17 "Hg7 mi
3:35 am37 °FChilly.8 mph30%30.17 "Hg10 mi
3:15 am37 °FChilly.10 mph28%30.18 "Hg10 mi
2:55 am34 °FChilly.No wind27%30.18 "Hg10 mi
2:35 am32 °FChilly.No wind29%30.18 "Hg10 mi
2:15 am36 °FChilly.No wind25%30.19 "Hg10 mi
1:55 am37 °FChilly.No wind23%30.19 "Hg10 mi
1:35 am34 °FChilly.No wind25%30.19 "Hg10 mi
1:15 am37 °FChilly.No wind22%30.19 "Hg10 mi
12:55 am36 °FChilly.No wind23%30.19 "Hg10 mi
12:35 am34 °FChilly.No wind25%30.19 "Hg10 mi
12:15 am34 °FChilly.No wind23%30.19 "Hg10 mi
11:55 pm
Sat, Dec 3
39 °FChilly.No wind18%30.19 "Hg10 mi
11:35 pm41 °FQuite cool.No wind17%30.19 "Hg10 mi
11:15 pm43 °FQuite cool.No wind16%30.19 "Hg10 mi
10:55 pm39 °FChilly.No wind18%30.20 "Hg10 mi
10:35 pm39 °FChilly.7 mph18%30.19 "Hg10 mi
10:15 pm36 °FChilly.7 mph21%30.20 "Hg10 mi
9:55 pm36 °FChilly.No wind21%30.19 "Hg10 mi
9:35 pm39 °FChilly.No wind18%30.18 "Hg10 mi
9:15 pm39 °FChilly.No wind20%30.18 "Hg10 mi
8:55 pm41 °FQuite cool.No wind19%30.19 "Hg10 mi
8:15 pm43 °FQuite cool.No wind16%30.19 "Hg10 mi
7:55 pm43 °FQuite cool.No wind16%30.19 "Hg10 mi
7:35 pm39 °FChilly.No wind17%30.19 "Hg10 mi
7:15 pm45 °FQuite cool.No wind15%30.19 "Hg10 mi
6:35 pm45 °FQuite cool.No wind15%30.18 "Hg10 mi
6:15 pm48 °FCool.No wind14%30.18 "Hg10 mi
5:55 pm48 °FCool.No wind14%30.17 "Hg10 mi
5:35 pm50 °FCool.No wind13%30.17 "Hg10 mi
5:15 pm50 °FClear.No wind13%30.17 "Hg10 mi
4:55 pm52 °FClear.No wind12%30.17 "Hg10 mi
4:35 pm52 °FSunny.No wind12%30.16 "Hg10 mi
4:15 pm54 °FSunny.No wind12%30.16 "Hg10 mi
Weather by CustomWeather, © 2016

See weather overviewHow to use our weather pages